Weather History for KARW - April, 2014

Change the Weather History Date:

Saturday, April 19, 2014

  Actual Average (KNBC) Record (KNBC)
Temperature  
Mean Temperature 58 °F -  
Max Temperature 62 °F 77 °F 90 °F (1937)
Min Temperature 53 °F 56 °F 36 °F (1983)
Degree Days  
Heating Degree Days 8    
Growing Degree Days 8 (Base 50)    
Moisture  
Dew Point 59 °F    
Average Humidity 99    
Maximum Humidity 100    
Minimum Humidity 88    
Precipitation  
Precipitation 0.00 in - - ()
Sea Level Pressure  
Sea Level Pressure 29.97 in    
Wind  
Wind Speed 13 mph (NNE)    
Max Wind Speed 20 mph    
Max Gust Speed 26 mph    
Visibility 6 miles    
Events Rain , Thunderstorm    
Averages and records for this station are not official NWS values.
T = Trace of Precipitation, MM = Missing Value Source: NWS Daily Summary

Daily Weather History Graph

Daily Weather History Graph

Search for Another Location

Airport or City:

Trip Planner

Search our weather history database for the weather conditions in past years. The results will help you decide how hot, cold, wet, or windy it might be!

Date:

Astronomy

Apr. 19, 2014 Rise Set
Actual Time 6:48 AM EDT 7:55 PM EDT
Civil Twilight 6:23 AM EDT 8:20 PM EDT
Nautical Twilight 5:53 AM EDT 8:50 PM EDT
Astronomical Twilight 5:21 AM EDT 9:22 PM EDT
Moon No Moon Rise 10:13 AM EDT (4/19)
Length of Visible Light 13h 57m
Length of Day
13h 06m
Waning Gibbous, 79% of the Moon is Illuminated
Apr 19
Waning Gibbous
Apr 22
Last Quarter
Apr 29
New
May 6
First Quarter
May 14
Full

Hourly Weather History & Observations

Time (EDT) Temp. Dew Point Humidity Pressure Visibility Wind Dir Wind Speed Gust Speed Precip Events Conditions
12:15 AM 60.8 °F 60.8 °F 100% 29.96 in 10.0 mi NE 18.4 mph 21.9 mph N/A Rain Light Rain
12:35 AM 60.8 °F 60.8 °F 100% 29.96 in 10.0 mi NE 17.3 mph 23.0 mph N/A   Drizzle
12:55 AM 60.8 °F 60.8 °F 100% 29.96 in 10.0 mi ENE 19.6 mph 26.5 mph N/A   Overcast
1:15 AM 60.8 °F 60.8 °F 100% 29.96 in 10.0 mi NE 15.0 mph 21.9 mph N/A Rain Light Rain
1:35 AM 60.8 °F 60.8 °F 100% 29.95 in 10.0 mi ENE 15.0 mph 19.6 mph N/A Rain Rain
1:55 AM 60.8 °F 60.8 °F 100% 29.94 in 7.0 mi ENE 15.0 mph 19.6 mph N/A   Drizzle
2:15 AM 60.8 °F 60.8 °F 100% 29.93 in 10.0 mi NE 13.8 mph 20.7 mph N/A   Overcast
2:35 AM 60.8 °F 60.8 °F 100% 29.93 in 10.0 mi NE 12.7 mph - N/A Rain Rain
2:55 AM 60.8 °F 60.8 °F 100% 29.92 in 10.0 mi NE 10.4 mph - N/A   Light Drizzle
3:15 AM 60.8 °F 60.8 °F 100% 29.92 in 10.0 mi NE 10.4 mph - N/A   Overcast
3:35 AM 60.8 °F 60.8 °F 100% 29.92 in 4.0 mi NNE 10.4 mph - N/A   Overcast
3:55 AM 60.8 °F 60.8 °F 100% 29.92 in 4.0 mi NNE 8.1 mph - N/A   Light Drizzle
4:15 AM 60.8 °F 60.8 °F 100% 29.91 in 4.0 mi NE 11.5 mph - N/A   Light Drizzle
4:35 AM 60.8 °F 60.8 °F 100% 29.91 in 5.0 mi NNE 9.2 mph - N/A   Overcast
4:55 AM 60.8 °F 60.8 °F 100% 29.91 in 4.0 mi NNE 10.4 mph - N/A   Overcast
5:15 AM 60.8 °F 60.8 °F 100% 29.91 in 4.0 mi North 6.9 mph - N/A   Overcast
5:35 AM 60.8 °F 60.8 °F 100% 29.91 in 5.0 mi North 9.2 mph - N/A   Overcast
5:55 AM 59.0 °F 59.0 °F 100% 29.92 in 2.5 mi North 8.1 mph - N/A Rain Rain
6:15 AM 59.0 °F 59.0 °F 100% 29.92 in 3.0 mi North 5.8 mph - N/A   Drizzle
6:35 AM 59.0 °F 59.0 °F 100% 29.92 in 3.0 mi NNE 8.1 mph - N/A   Overcast
6:55 AM 59.0 °F 59.0 °F 100% 29.92 in 7.0 mi North 8.1 mph - N/A   Overcast
7:15 AM 59.0 °F 59.0 °F 100% 29.93 in 5.0 mi North 11.5 mph - N/A   Overcast
7:35 AM 57.2 °F 57.2 °F 100% 29.94 in 7.0 mi North 10.4 mph - N/A   Overcast
7:55 AM 57.2 °F 57.2 °F 100% 29.94 in 7.0 mi North 9.2 mph - N/A   Overcast
8:15 AM 59.0 °F 59.0 °F 100% 29.94 in 7.0 mi North 10.4 mph - N/A   Overcast
8:35 AM 59.0 °F 59.0 °F 100% 29.94 in 5.0 mi North 9.2 mph - N/A   Overcast
8:55 AM 59.0 °F 59.0 °F 100% 29.94 in 5.0 mi North 8.1 mph - N/A   Overcast
9:15 AM 59.0 °F 59.0 °F 100% 29.96 in 5.0 mi North 9.2 mph - N/A   Overcast
9:35 AM 59.0 °F 59.0 °F 100% 29.95 in 2.5 mi North 9.2 mph - N/A   Overcast
9:55 AM 59.0 °F 59.0 °F 100% 29.96 in 2.0 mi North 9.2 mph - N/A   Overcast
10:15 AM 59.0 °F 59.0 °F 100% 29.96 in 2.5 mi North 10.4 mph - N/A   Overcast
10:35 AM 59.0 °F 59.0 °F 100% 29.97 in 7.0 mi NNE 9.2 mph - N/A   Overcast
10:55 AM 59.0 °F 59.0 °F 100% 29.97 in 5.0 mi NNE 12.7 mph - N/A   Overcast
11:15 AM 59.0 °F 59.0 °F 100% 29.97 in 2.5 mi NNE 12.7 mph - N/A   Overcast
11:35 AM 60.8 °F 60.8 °F 100% 29.97 in 2.5 mi NNE 9.2 mph - N/A   Overcast
11:55 AM 60.8 °F 60.8 °F 100% 29.97 in 5.0 mi NNE 11.5 mph - N/A   Overcast
12:15 PM 60.8 °F 60.8 °F 100% 29.96 in 2.0 mi NNE 11.5 mph - N/A   Overcast
12:35 PM 60.8 °F 60.8 °F 100% 29.96 in 3.0 mi NNE 9.2 mph - N/A   Overcast
1:15 PM 60.8 °F 60.8 °F 100% 29.96 in 3.0 mi NNE 10.4 mph - N/A   Overcast
1:35 PM 60.8 °F 60.8 °F 100% 29.96 in 3.0 mi North 11.5 mph - N/A   Overcast
1:55 PM 60.8 °F 60.8 °F 100% 29.96 in 2.5 mi NNE 9.2 mph - N/A   Overcast
2:15 PM 62.6 °F 62.6 °F 100% 29.96 in 2.0 mi NNE 11.5 mph - N/A   Overcast
2:35 PM 62.6 °F 62.6 °F 100% 29.95 in 3.0 mi NNE 11.5 mph - N/A   Overcast
2:55 PM 62.6 °F 62.6 °F 100% 29.95 in 4.0 mi NNE 11.5 mph - N/A   Overcast
3:15 PM 62.6 °F 62.6 °F 100% 29.95 in 2.5 mi North 10.4 mph - N/A   Overcast
3:35 PM 60.8 °F 60.8 °F 100% 29.95 in 2.0 mi North 12.7 mph - N/A   Overcast
3:55 PM 60.8 °F 60.8 °F 100% 29.95 in 5.0 mi North 11.5 mph - N/A   Overcast
4:15 PM 60.8 °F 60.8 °F 100% 29.95 in 4.0 mi North 16.1 mph - N/A   Overcast
4:35 PM 59.0 °F 59.0 °F 100% 29.96 in 5.0 mi NNE 16.1 mph 21.9 mph N/A   Overcast
4:55 PM 60.8 °F 59.0 °F 94% 29.96 in 10.0 mi NNE 13.8 mph - N/A   Overcast
5:15 PM 60.8 °F 59.0 °F 94% 29.96 in 10.0 mi North 16.1 mph - N/A   Overcast
5:35 PM 59.0 °F 57.2 °F 94% 29.96 in 10.0 mi North 16.1 mph 19.6 mph N/A   Overcast
5:55 PM 59.0 °F 57.2 °F 94% 29.99 in 10.0 mi NNE 16.1 mph 20.7 mph N/A   Overcast
6:15 PM 59.0 °F 57.2 °F 94% 29.99 in 10.0 mi North 17.3 mph 23.0 mph N/A   Overcast
6:35 PM 59.0 °F 55.4 °F 88% 29.99 in 7.0 mi North 15.0 mph - N/A Thunderstorm Overcast
6:55 PM 59.0 °F 59.0 °F 100% 29.98 in 4.0 mi NNE 16.1 mph 20.7 mph N/A Thunderstorm Overcast
7:15 PM 57.2 °F 57.2 °F 100% 29.99 in 4.0 mi North 10.4 mph - N/A Thunderstorm Overcast
7:35 PM 57.2 °F 57.2 °F 100% 29.99 in 4.0 mi North 12.7 mph - N/A Thunderstorm Overcast
7:55 PM 57.2 °F 57.2 °F 100% 29.99 in 7.0 mi North 15.0 mph 19.6 mph N/A Thunderstorm Thunderstorm
8:15 PM 57.2 °F 57.2 °F 100% 30.00 in 10.0 mi North 11.5 mph 17.3 mph N/A Thunderstorm Overcast
8:35 PM 57.2 °F 57.2 °F 100% 30.01 in 10.0 mi North 13.8 mph 17.3 mph N/A Thunderstorm Overcast
8:55 PM 57.2 °F 57.2 °F 100% 30.02 in 10.0 mi North 12.7 mph 24.2 mph N/A Thunderstorm Overcast
9:15 PM 57.2 °F 55.4 °F 94% 30.03 in 10.0 mi North 12.7 mph 20.7 mph N/A   Overcast
9:35 PM 55.4 °F 55.4 °F 100% 30.04 in 10.0 mi North 13.8 mph 17.3 mph N/A Rain , Thunderstorm Rain
9:55 PM 55.4 °F 55.4 °F 100% 30.05 in 10.0 mi North 10.4 mph - N/A Rain , Thunderstorm Light Thunderstorms and Rain
10:15 PM 55.4 °F 55.4 °F 100% 30.05 in 10.0 mi North 6.9 mph - N/A Rain , Thunderstorm Light Thunderstorms and Rain
10:35 PM 55.4 °F 55.4 °F 100% 30.06 in 4.0 mi NNW 6.9 mph - N/A Rain Heavy Rain
10:55 PM 55.4 °F 55.4 °F 100% 30.06 in 5.0 mi North 12.7 mph - N/A Rain Light Rain
11:15 PM 55.4 °F 55.4 °F 100% 30.07 in 7.0 mi North 9.2 mph - N/A Rain Light Rain
11:35 PM 53.6 °F 53.6 °F 100% 30.06 in 5.0 mi North 17.3 mph 24.2 mph N/A Thunderstorm Unknown
11:55 PM 53.6 °F 53.6 °F 100% 30.06 in 5.0 mi North 16.1 mph 21.9 mph N/A Rain Light Rain